Wetterdaten: Sonntag, 13.10.2013
Datum Zeit Temperatur Luftfeuchte Luftdruck Regen Wind Richtung Richtung Taupunkt Windchill Windben
13.10.2013 00:00 0,6 C 96 % 1017,9 hPa 0,0 l/m 0,2 km/h (0 Bft) SO 135 0,0 C 0,3 C 0,0 km/h (0 Bft)
13.10.2013 00:05 0,6 C 96 % 1017,9 hPa 0,0 l/m 0,2 km/h (0 Bft) SO 135 0,0 C 0,3 C 0,0 km/h (0 Bft)
13.10.2013 00:10 0,7 C 96 % 1017,9 hPa 0,0 l/m 0,2 km/h (0 Bft) O-SO 112 0,1 C 0,3 C 0,0 km/h (0 Bft)
13.10.2013 00:15 0,7 C 96 % 1017,9 hPa 0,0 l/m 0,2 km/h (0 Bft) O-SO 112 0,1 C 0,3 C 0,0 km/h (0 Bft)
13.10.2013 00:20 0,8 C 96 % 1017,9 hPa 0,0 l/m 0,0 km/h (0 Bft) S-SW 202 0,2 C 0,5 C 0,0 km/h (0 Bft)
13.10.2013 00:25 0,8 C 96 % 1017,9 hPa 0,0 l/m 0,0 km/h (0 Bft) S-SO 157 0,2 C 0,5 C 0,0 km/h (0 Bft)
13.10.2013 00:30 0,7 C 96 % 1017,9 hPa 0,0 l/m 0,0 km/h (0 Bft) S-SO 157 0,1 C 0,4 C 0,0 km/h (0 Bft)
13.10.2013 00:35 0,8 C 96 % 1017,9 hPa 0,0 l/m 0,0 km/h (0 Bft) S-SO 157 0,2 C 0,4 C 0,0 km/h (0 Bft)
13.10.2013 00:40 0,8 C 96 % 1017,9 hPa 0,0 l/m 0,0 km/h (0 Bft) S-SW 202 0,2 C 0,5 C 0,0 km/h (0 Bft)
13.10.2013 00:45 0,9 C 96 % 1017,9 hPa 0,0 l/m 0,0 km/h (0 Bft) S-SW 202 0,3 C 0,6 C 0,0 km/h (0 Bft)
13.10.2013 00:50 0,8 C 96 % 1018,2 hPa 0,0 l/m 0,2 km/h (0 Bft) S 180 0,2 C 0,6 C 0,0 km/h (0 Bft)
13.10.2013 00:55 0,9 C 96 % 1018,2 hPa 0,0 l/m 0,2 km/h (0 Bft) S 180 0,3 C 0,6 C 0,0 km/h (0 Bft)
13.10.2013 01:00 0,9 C 96 % 1018,2 hPa 0,0 l/m 0,0 km/h (0 Bft) S-SO 157 0,3 C 0,6 C 0,0 km/h (0 Bft)
13.10.2013 01:05 0,9 C 97 % 1018,2 hPa 0,0 l/m 0,0 km/h (0 Bft) S-SO 157 0,5 C 0,6 C 0,0 km/h (0 Bft)
13.10.2013 01:10 0,9 C 97 % 1018,6 hPa 0,0 l/m 0,2 km/h (0 Bft) S 180 0,5 C 0,8 C 2,3 km/h (1 Bft)
13.10.2013 01:15 1,0 C 96 % 1018,6 hPa 0,0 l/m 0,3 km/h (0 Bft) S 180 0,4 C 1,0 C 2,7 km/h (1 Bft)
13.10.2013 01:20 1,5 C 96 % 1018,6 hPa 0,0 l/m 1,9 km/h (1 Bft) SO 135 0,9 C 1,4 C 5,1 km/h (1 Bft)
13.10.2013 01:25 1,6 C 97 % 1018,6 hPa 0,0 l/m 2,6 km/h (1 Bft) S 180 1,2 C 1,6 C 3,1 km/h (1 Bft)
13.10.2013 01:30 1,6 C 97 % 1018,7 hPa 0,0 l/m 2,6 km/h (1 Bft) S 180 1,2 C 1,8 C 5,5 km/h (1 Bft)
13.10.2013 01:35 1,5 C 97 % 1018,7 hPa 0,0 l/m 2,3 km/h (1 Bft) O-SO 112 1,1 C 1,8 C 2,7 km/h (1 Bft)
13.10.2013 01:40 1,3 C 97 % 1018,7 hPa 0,0 l/m 0,8 km/h (0 Bft) S 180 0,9 C 1,5 C 0,0 km/h (0 Bft)
13.10.2013 01:45 1,4 C 97 % 1018,7 hPa 0,0 l/m 0,5 km/h (0 Bft) SO 135 1,0 C 1,3 C 0,0 km/h (0 Bft)
13.10.2013 01:50 1,5 C 97 % 1018,9 hPa 0,0 l/m 0,6 km/h (0 Bft) O-SO 112 1,1 C 1,3 C 2,9 km/h (1 Bft)
13.10.2013 01:55 1,7 C 97 % 1018,9 hPa 0,0 l/m 0,8 km/h (0 Bft) S 180 1,3 C 1,4 C 1,6 km/h (1 Bft)
13.10.2013 02:00 1,7 C 97 % 1018,9 hPa 0,0 l/m 0,6 km/h (0 Bft) S 180 1,3 C 1,7 C 0,0 km/h (0 Bft)
13.10.2013 02:05 1,7 C 97 % 1018,9 hPa 0,0 l/m 0,5 km/h (0 Bft) S-SO 157 1,3 C 1,7 C 2,1 km/h (1 Bft)
13.10.2013 02:10 1,6 C 97 % 1019,1 hPa 0,0 l/m 1,0 km/h (0 Bft) SO 135 1,2 C 1,7 C 0,0 km/h (0 Bft)
13.10.2013 02:15 1,7 C 97 % 1019,1 hPa 0,0 l/m 1,6 km/h (1 Bft) O-NO 67 1,3 C 1,7 C 3,2 km/h (1 Bft)
13.10.2013 02:20 1,8 C 97 % 1019,1 hPa 0,0 l/m 1,9 km/h (1 Bft) O-NO 67 1,4 C 1,7 C 3,4 km/h (1 Bft)
13.10.2013 02:25 1,9 C 97 % 1019,1 hPa 0,0 l/m 1,4 km/h (1 Bft) O 90 1,5 C 1,8 C 0,0 km/h (0 Bft)
13.10.2013 02:30 2,0 C 97 % 1019,1 hPa 0,0 l/m 0,8 km/h (0 Bft) S 180 1,6 C 1,8 C 0,0 km/h (0 Bft)
13.10.2013 02:35 2,1 C 97 % 1019,1 hPa 0,0 l/m 0,6 km/h (0 Bft) NO 45 1,7 C 2,0 C 0,0 km/h (0 Bft)
13.10.2013 02:40 2,3 C 97 % 1019,1 hPa 0,0 l/m 1,1 km/h (1 Bft) S 180 1,9 C 2,1 C 5,3 km/h (1 Bft)
13.10.2013 02:45 2,3 C 97 % 1019,1 hPa 0,0 l/m 1,4 km/h (1 Bft) O 90 1,9 C 2,3 C 0,0 km/h (0 Bft)
13.10.2013 02:50 2,4 C 97 % 1019,1 hPa 0,0 l/m 1,0 km/h (0 Bft) NO 45 2,0 C 2,4 C 0,0 km/h (0 Bft)
13.10.2013 02:55 2,4 C 97 % 1019,1 hPa 0,0 l/m 0,6 km/h (0 Bft) O 90 2,0 C 2,4 C 0,0 km/h (0 Bft)
13.10.2013 03:00 2,5 C 97 % 1019,1 hPa 0,0 l/m 0,8 km/h (0 Bft) NW 315 2,1 C 2,5 C 0,0 km/h (0 Bft)
13.10.2013 03:05 2,5 C 97 % 1019,1 hPa 0,0 l/m 0,5 km/h (0 Bft) O-SO 112 2,1 C 2,5 C 2,6 km/h (1 Bft)
13.10.2013 03:10 2,5 C 97 % 1019,6 hPa 0,0 l/m 0,2 km/h (0 Bft) W-NW 292 2,1 C 2,5 C 0,0 km/h (0 Bft)
13.10.2013 03:15 2,5 C 97 % 1019,6 hPa 0,0 l/m 0,5 km/h (0 Bft) SO 135 2,1 C 2,5 C 0,0 km/h (0 Bft)
13.10.2013 03:20 2,5 C 97 % 1019,6 hPa 0,0 l/m 0,6 km/h (0 Bft) NO 45 2,1 C 2,5 C 0,0 km/h (0 Bft)
13.10.2013 03:25 2,4 C 97 % 1019,6 hPa 0,0 l/m 0,3 km/h (0 Bft) NO 45 2,0 C 2,5 C 0,0 km/h (0 Bft)
13.10.2013 03:30 2,5 C 97 % 1019,8 hPa 0,0 l/m 0,0 km/h (0 Bft) NO 45 2,1 C 2,4 C 0,0 km/h (0 Bft)
13.10.2013 03:35 2,5 C 97 % 1019,8 hPa 0,0 l/m 0,2 km/h (0 Bft) O-NO 67 2,1 C 2,4 C 2,1 km/h (1 Bft)
13.10.2013 03:40 2,5 C 97 % 1019,8 hPa 0,0 l/m 0,8 km/h (0 Bft) S 180 2,1 C 2,5 C 3,1 km/h (1 Bft)
13.10.2013 03:45 2,6 C 97 % 1019,8 hPa 0,0 l/m 1,3 km/h (1 Bft) SO 135 2,2 C 2,6 C 2,6 km/h (1 Bft)
13.10.2013 03:50 2,9 C 97 % 1019,8 hPa 0,0 l/m 2,1 km/h (1 Bft) S 180 2,5 C 2,6 C 5,8 km/h (2 Bft)
13.10.2013 03:55 3,0 C 96 % 1019,8 hPa 0,0 l/m 2,3 km/h (1 Bft) O-SO 112 2,4 C 2,8 C 5,0 km/h (1 Bft)
13.10.2013 04:00 3,2 C 96 % 1019,8 hPa 0,0 l/m 1,6 km/h (1 Bft) O 90 2,6 C 2,9 C 0,0 km/h (0 Bft)
13.10.2013 04:05 3,3 C 96 % 1019,8 hPa 0,0 l/m 1,8 km/h (1 Bft) NO 45 2,7 C 3,0 C 5,8 km/h (2 Bft)
13.10.2013 04:10 3,5 C 96 % 1020,0 hPa 0,0 l/m 2,6 km/h (1 Bft) O-NO 67 2,9 C 3,2 C 7,2 km/h (2 Bft)
13.10.2013 04:15 3,5 C 96 % 1020,0 hPa 0,0 l/m 2,9 km/h (1 Bft) O 90 2,9 C 3,1 C 2,3 km/h (1 Bft)
13.10.2013 04:20 3,5 C 96 % 1020,0 hPa 0,0 l/m 3,2 km/h (1 Bft) S 180 2,9 C 3,0 C 2,6 km/h (1 Bft)
13.10.2013 04:25 3,5 C 96 % 1020,0 hPa 0,0 l/m 2,9 km/h (1 Bft) SO 135 2,9 C 3,3 C 1,6 km/h (1 Bft)
13.10.2013 04:28 3,5 C 96 % 1020,3 hPa 0,0 l/m 2,7 km/h (1 Bft) SO 135 2,9 C 3,4 C 3,1 km/h (1 Bft)
13.10.2013 04:30 3,5 C 96 % 1020,3 hPa 0,0 l/m 2,7 km/h (1 Bft) SO 135 2,9 C 3,4 C 3,1 km/h (1 Bft)
13.10.2013 04:35 3,5 C 96 % 1020,3 hPa 0,0 l/m 2,7 km/h (1 Bft) S 180 2,9 C 3,4 C 3,4 km/h (1 Bft)
13.10.2013 04:40 3,6 C 96 % 1020,3 hPa 0,0 l/m 4,7 km/h (1 Bft) S 180 3,0 C 2,5 C 14,6 km/h (3 Bft)
13.10.2013 04:45 3,7 C 96 % 1020,3 hPa 0,0 l/m 5,3 km/h (1 Bft) S-SW 202 3,1 C 2,5 C 5,1 km/h (1 Bft)
13.10.2013 04:50 3,8 C 96 % 1020,4 hPa 0,0 l/m 5,0 km/h (1 Bft) S-SO 157 3,2 C 2,7 C 4,8 km/h (1 Bft)
13.10.2013 04:55 3,8 C 96 % 1020,4 hPa 0,0 l/m 4,8 km/h (1 Bft) S-SW 202 3,2 C 2,8 C 6,4 km/h (2 Bft)
13.10.2013 05:00 3,8 C 96 % 1020,4 hPa 0,0 l/m 4,5 km/h (1 Bft) S-SW 202 3,2 C 2,9 C 6,4 km/h (2 Bft)
13.10.2013 05:05 3,7 C 96 % 1020,4 hPa 0,0 l/m 4,2 km/h (1 Bft) S 180 3,1 C 3,1 C 3,1 km/h (1 Bft)
13.10.2013 05:10 3,7 C 96 % 1020,6 hPa 0,0 l/m 3,9 km/h (1 Bft) O-SO 112 3,1 C 3,2 C 3,4 km/h (1 Bft)
13.10.2013 05:15 3,7 C 96 % 1020,6 hPa 0,0 l/m 3,1 km/h (1 Bft) O 90 3,1 C 3,6 C 2,9 km/h (1 Bft)
13.10.2013 05:20 3,6 C 96 % 1020,6 hPa 0,0 l/m 2,7 km/h (1 Bft) S 180 3,0 C 3,7 C 3,4 km/h (1 Bft)
13.10.2013 05:25 3,6 C 96 % 1020,6 hPa 0,0 l/m 2,9 km/h (1 Bft) S-SW 202 3,0 C 3,7 C 5,3 km/h (1 Bft)
13.10.2013 05:30 3,6 C 96 % 1020,6 hPa 0,0 l/m 2,3 km/h (1 Bft) S-SO 157 3,0 C 3,7 C 0,0 km/h (0 Bft)
13.10.2013 05:35 3,6 C 96 % 1020,6 hPa 0,7 l/m 1,4 km/h (1 Bft) O-SO 112 3,0 C 3,7 C 0,0 km/h (0 Bft)
13.10.2013 05:40 3,6 C 96 % 1020,6 hPa 0,0 l/m 0,8 km/h (0 Bft) S 180 3,0 C 3,7 C 1,6 km/h (1 Bft)
13.10.2013 05:45 3,6 C 96 % 1020,6 hPa 0,0 l/m 0,5 km/h (0 Bft) O-SO 112 3,0 C 3,7 C 0,0 km/h (0 Bft)
13.10.2013 05:50 3,6 C 96 % 1020,6 hPa 0,0 l/m 0,3 km/h (0 Bft) O-SO 112 3,0 C 3,7 C 0,0 km/h (0 Bft)
13.10.2013 05:55 3,6 C 96 % 1020,6 hPa 0,0 l/m 0,5 km/h (0 Bft) NO 45 3,0 C 3,7 C 0,0 km/h (0 Bft)
13.10.2013 06:00 3,6 C 96 % 1020,6 hPa 0,0 l/m 0,5 km/h (0 Bft) NO 45 3,0 C 3,6 C 0,0 km/h (0 Bft)
13.10.2013 06:05 3,6 C 96 % 1020,6 hPa 0,0 l/m 0,2 km/h (0 Bft) O 90 3,0 C 3,6 C 0,0 km/h (0 Bft)
13.10.2013 06:10 3,6 C 96 % 1020,9 hPa 0,0 l/m 0,2 km/h (0 Bft) NO 45 3,0 C 3,6 C 2,3 km/h (1 Bft)
13.10.2013 06:15 3,5 C 96 % 1020,9 hPa 0,0 l/m 0,3 km/h (0 Bft) N 360 2,9 C 3,6 C 0,0 km/h (0 Bft)
13.10.2013 06:20 3,5 C 96 % 1020,9 hPa 0,0 l/m 0,0 km/h (0 Bft) S-SO 157 2,9 C 3,6 C 0,0 km/h (0 Bft)
13.10.2013 06:25 3,5 C 96 % 1020,9 hPa 0,0 l/m 0,0 km/h (0 Bft) S-SW 202 2,9 C 3,6 C 0,0 km/h (0 Bft)
13.10.2013 06:30 3,4 C 96 % 1021,1 hPa 0,0 l/m 0,0 km/h (0 Bft) O-SO 112 2,8 C 3,5 C 0,0 km/h (0 Bft)
13.10.2013 06:35 3,4 C 96 % 1021,1 hPa 0,0 l/m 0,0 km/h (0 Bft) NO 45 2,8 C 3,5 C 0,0 km/h (0 Bft)
13.10.2013 06:40 3,4 C 96 % 1021,1 hPa 0,0 l/m 0,0 km/h (0 Bft) O 90 2,8 C 3,5 C 0,0 km/h (0 Bft)
13.10.2013 06:45 3,4 C 96 % 1021,1 hPa 0,0 l/m 0,2 km/h (0 Bft) N-NO 22 2,8 C 3,5 C 0,0 km/h (0 Bft)
13.10.2013 06:50 3,4 C 96 % 1021,1 hPa 0,0 l/m 0,2 km/h (0 Bft) O 90 2,8 C 3,4 C 0,0 km/h (0 Bft)
13.10.2013 06:55 3,3 C 96 % 1021,1 hPa 0,0 l/m 0,0 km/h (0 Bft) O 90 2,7 C 3,4 C 0,0 km/h (0 Bft)
13.10.2013 07:00 3,3 C 96 % 1021,1 hPa 0,0 l/m 0,0 km/h (0 Bft) N-NO 22 2,7 C 3,4 C 0,0 km/h (0 Bft)
13.10.2013 07:05 3,3 C 96 % 1021,1 hPa 0,0 l/m 0,0 km/h (0 Bft) N-NO 22 2,7 C 3,4 C 0,0 km/h (0 Bft)
13.10.2013 07:10 3,3 C 96 % 1021,2 hPa 0,0 l/m 0,2 km/h (0 Bft) S 180 2,7 C 3,4 C 0,0 km/h (0 Bft)
13.10.2013 07:15 3,2 C 96 % 1021,2 hPa 0,0 l/m 0,3 km/h (0 Bft) S 180 2,6 C 3,3 C 0,0 km/h (0 Bft)
13.10.2013 07:20 3,0 C 96 % 1021,2 hPa 0,0 l/m 1,0 km/h (0 Bft) O 90 2,4 C 3,0 C 0,0 km/h (0 Bft)
13.10.2013 07:25 3,0 C 96 % 1021,2 hPa 0,0 l/m 1,0 km/h (0 Bft) NO 45 2,4 C 3,0 C 0,0 km/h (0 Bft)
13.10.2013 07:30 3,0 C 96 % 1021,2 hPa 0,0 l/m 0,2 km/h (0 Bft) S-SO 157 2,4 C 3,0 C 0,0 km/h (0 Bft)
13.10.2013 07:35 2,8 C 97 % 1021,2 hPa 0,0 l/m 0,0 km/h (0 Bft) SO 135 2,4 C 2,9 C 0,0 km/h (0 Bft)
13.10.2013 07:40 2,7 C 97 % 1021,2 hPa 0,0 l/m 0,2 km/h (0 Bft) O-SO 112 2,3 C 2,7 C 1,6 km/h (1 Bft)
13.10.2013 07:45 2,4 C 97 % 1021,2 hPa 0,0 l/m 0,2 km/h (0 Bft) SO 135 2,0 C 2,6 C 0,0 km/h (0 Bft)
13.10.2013 07:50 2,5 C 97 % 1021,4 hPa 0,0 l/m 0,0 km/h (0 Bft) O-SO 112 2,1 C 2,4 C 0,0 km/h (0 Bft)
13.10.2013 07:55 2,7 C 97 % 1021,4 hPa 0,0 l/m 0,3 km/h (0 Bft) O 90 2,3 C 2,5 C 1,9 km/h (1 Bft)
13.10.2013 08:00 2,8 C 97 % 1021,4 hPa 0,0 l/m 0,8 km/h (0 Bft) O-NO 67 2,4 C 2,6 C 2,3 km/h (1 Bft)
13.10.2013 08:05 2,8 C 97 % 1021,4 hPa 0,7 l/m 1,6 km/h (1 Bft) NO 45 2,4 C 2,7 C 2,7 km/h (1 Bft)
13.10.2013 08:10 2,8 C 97 % 1021,6 hPa 0,0 l/m 2,4 km/h (1 Bft) O-NO 67 2,4 C 2,8 C 3,9 km/h (1 Bft)
13.10.2013 08:15 2,8 C 97 % 1021,6 hPa 0,0 l/m 2,9 km/h (1 Bft) O-SO 112 2,4 C 2,8 C 3,7 km/h (1 Bft)
13.10.2013 08:20 3,0 C 96 % 1021,6 hPa 0,0 l/m 2,9 km/h (1 Bft) O 90 2,4 C 2,8 C 2,3 km/h (1 Bft)
13.10.2013 08:25 3,2 C 97 % 1021,6 hPa 0,0 l/m 2,9 km/h (1 Bft) O 90 2,8 C 2,8 C 2,3 km/h (1 Bft)
13.10.2013 08:30 3,4 C 97 % 1021,8 hPa 0,0 l/m 2,9 km/h (1 Bft) O 90 3,0 C 2,8 C 2,3 km/h (1 Bft)
13.10.2013 08:35 3,4 C 97 % 1021,8 hPa 0,0 l/m 2,1 km/h (1 Bft) O 90 3,0 C 3,4 C 2,6 km/h (1 Bft)
13.10.2013 08:40 3,4 C 97 % 1021,8 hPa 0,0 l/m 2,1 km/h (1 Bft) NO 45 3,0 C 3,6 C 0,0 km/h (0 Bft)
13.10.2013 08:45 3,4 C 97 % 1021,8 hPa 0,0 l/m 2,1 km/h (1 Bft) NO 45 3,0 C 3,6 C 0,0 km/h (0 Bft)
13.10.2013 08:50 3,3 C 97 % 1021,9 hPa 0,0 l/m 0,3 km/h (0 Bft) O 90 2,9 C 3,6 C 0,0 km/h (0 Bft)
13.10.2013 08:55 3,3 C 97 % 1021,9 hPa 0,0 l/m 0,0 km/h (0 Bft) O 90 2,9 C 3,5 C 1,6 km/h (1 Bft)
13.10.2013 09:00 3,6 C 97 % 1021,9 hPa 0,0 l/m 0,0 km/h (0 Bft) O-NO 67 3,2 C 3,6 C 0,0 km/h (0 Bft)
13.10.2013 09:05 3,6 C 97 % 1021,9 hPa 0,0 l/m 0,2 km/h (0 Bft) O 90 3,2 C 3,9 C 0,0 km/h (0 Bft)
13.10.2013 09:10 3,8 C 97 % 1022,1 hPa 0,0 l/m 0,0 km/h (0 Bft) NO 45 3,4 C 4,3 C 0,0 km/h (0 Bft)
13.10.2013 09:15 3,8 C 97 % 1022,1 hPa 0,0 l/m 0,0 km/h (0 Bft) O-SO 112 3,4 C 4,5 C 0,0 km/h (0 Bft)
13.10.2013 09:20 3,7 C 97 % 1022,1 hPa 0,0 l/m 0,0 km/h (0 Bft) O 90 3,3 C 5,5 C 0,0 km/h (0 Bft)
13.10.2013 09:25 3,8 C 97 % 1022,1 hPa 0,0 l/m 0,2 km/h (0 Bft) O-SO 112 3,4 C 6,9 C 1,6 km/h (1 Bft)
13.10.2013 09:30 4,0 C 96 % 1022,1 hPa 0,0 l/m 0,5 km/h (0 Bft) NO 45 3,4 C 8,4 C 3,1 km/h (1 Bft)
13.10.2013 09:35 4,1 C 96 % 1022,1 hPa 0,0 l/m 0,8 km/h (0 Bft) O-NO 67 3,5 C 8,3 C 2,4 km/h (1 Bft)
13.10.2013 09:40 4,2 C 96 % 1022,1 hPa 0,0 l/m 1,3 km/h (1 Bft) N-NO 22 3,6 C 9,1 C 1,6 km/h (1 Bft)
13.10.2013 09:45 4,2 C 96 % 1022,1 hPa 0,0 l/m 0,6 km/h (0 Bft) O 90 3,6 C 9,4 C 0,0 km/h (0 Bft)
13.10.2013 09:50 4,2 C 97 % 1022,2 hPa 0,0 l/m 1,0 km/h (0 Bft) O-NO 67 3,8 C 10,2 C 3,7 km/h (1 Bft)
13.10.2013 09:55 4,1 C 97 % 1022,2 hPa 0,0 l/m 1,0 km/h (0 Bft) O-NO 67 3,7 C 10,2 C 3,7 km/h (1 Bft)
13.10.2013 10:00 4,2 C 97 % 1022,2 hPa 0,0 l/m 1,6 km/h (1 Bft) N 360 3,8 C 11,1 C 1,6 km/h (1 Bft)
13.10.2013 10:05 4,3 C 96 % 1022,2 hPa 0,0 l/m 0,3 km/h (0 Bft) O-NO 67 3,7 C 12,6 C 0,0 km/h (0 Bft)
13.10.2013 10:10 4,6 C 97 % 1022,4 hPa 0,0 l/m 0,5 km/h (0 Bft) N 360 4,2 C 12,3 C 3,4 km/h (1 Bft)
13.10.2013 10:15 4,5 C 97 % 1022,4 hPa 0,0 l/m 0,6 km/h (0 Bft) O 90 4,1 C 11,8 C 0,0 km/h (0 Bft)
13.10.2013 10:20 4,9 C 97 % 1022,4 hPa 0,0 l/m 0,8 km/h (0 Bft) O-NO 67 4,5 C 11,0 C 2,6 km/h (1 Bft)
13.10.2013 10:23 4,9 C 97 % 1022,4 hPa 0,0 l/m 0,5 km/h (0 Bft) N-NO 22 4,5 C 10,3 C 1,8 km/h (1 Bft)
13.10.2013 10:25 4,9 C 97 % 1022,4 hPa 0,0 l/m 0,5 km/h (0 Bft) N-NO 22 4,5 C 10,3 C 1,8 km/h (1 Bft)
13.10.2013 10:30 5,2 C 96 % 1022,5 hPa 0,0 l/m 0,5 km/h (0 Bft) W 270 4,6 C 9,5 C 2,4 km/h (1 Bft)
13.10.2013 10:35 5,2 C 96 % 1022,5 hPa 0,0 l/m 1,1 km/h (1 Bft) N-NW 337 4,6 C 9,0 C 3,7 km/h (1 Bft)
13.10.2013 10:40 5,4 C 96 % 1022,5 hPa 0,0 l/m 1,8 km/h (1 Bft) W-SW 247 4,8 C 8,0 C 1,6 km/h (1 Bft)
13.10.2013 10:45 5,4 C 96 % 1022,5 hPa 0,0 l/m 1,8 km/h (1 Bft) N-NW 337 4,8 C 7,8 C 4,3 km/h (1 Bft)
13.10.2013 10:50 5,7 C 96 % 1022,4 hPa 0,0 l/m 2,4 km/h (1 Bft) NW 315 5,1 C 8,1 C 2,7 km/h (1 Bft)
13.10.2013 10:55 5,7 C 96 % 1022,4 hPa 0,0 l/m 2,9 km/h (1 Bft) S 180 5,1 C 8,6 C 1,9 km/h (1 Bft)
13.10.2013 11:00 5,6 C 96 % 1022,4 hPa 0,0 l/m 2,1 km/h (1 Bft) N 360 5,0 C 9,7 C 2,1 km/h (1 Bft)
13.10.2013 11:05 5,7 C 96 % 1022,4 hPa 0,0 l/m 1,3 km/h (1 Bft) NO 45 5,1 C 10,7 C 0,0 km/h (0 Bft)
13.10.2013 11:10 6,4 C 95 % 1022,8 hPa 0,0 l/m 0,5 km/h (0 Bft) N 360 5,7 C 12,3 C 0,0 km/h (0 Bft)
13.10.2013 11:15 7,7 C 95 % 1022,8 hPa 0,0 l/m 1,6 km/h (1 Bft) W-SW 247 7,0 C 12,8 C 6,1 km/h (2 Bft)
13.10.2013 11:20 8,5 C 93 % 1022,8 hPa 0,0 l/m 4,3 km/h (1 Bft) N 360 7,4 C 12,5 C 6,4 km/h (2 Bft)
13.10.2013 11:25 8,6 C 89 % 1022,8 hPa 0,0 l/m 5,1 km/h (1 Bft) W-NW 292 6,9 C 12,8 C 6,9 km/h (2 Bft)
13.10.2013 11:30 9,2 C 80 % 1023,1 hPa 0,0 l/m 4,0 km/h (1 Bft) W-NW 292 5,9 C 12,7 C 3,4 km/h (1 Bft)
13.10.2013 11:35 9,1 C 77 % 1023,1 hPa 0,0 l/m 4,2 km/h (1 Bft) N-NW 337 5,3 C 12,8 C 5,1 km/h (1 Bft)
13.10.2013 11:40 8,5 C 79 % 1023,1 hPa 0,0 l/m 4,5 km/h (1 Bft) N 360 5,1 C 12,8 C 4,5 km/h (1 Bft)
13.10.2013 11:45 7,8 C 81 % 1023,1 hPa 0,0 l/m 4,8 km/h (1 Bft) NW 315 4,7 C 11,7 C 6,4 km/h (2 Bft)
13.10.2013 11:50 8,4 C 82 % 1023,1 hPa 0,0 l/m 3,7 km/h (1 Bft) N-NO 22 5,5 C 10,7 C 0,0 km/h (0 Bft)
13.10.2013 11:55 7,9 C 79 % 1023,1 hPa 0,0 l/m 3,7 km/h (1 Bft) NW 315 4,5 C 11,2 C 5,5 km/h (1 Bft)
13.10.2013 12:00 7,5 C 82 % 1023,1 hPa 0,0 l/m 3,2 km/h (1 Bft) W 270 4,6 C 9,7 C 0,0 km/h (0 Bft)
13.10.2013 12:05 8,1 C 83 % 1023,1 hPa 0,0 l/m 1,9 km/h (1 Bft) N-NW 337 5,4 C 9,7 C 5,0 km/h (1 Bft)
13.10.2013 12:10 8,0 C 83 % 1022,8 hPa 0,0 l/m 1,0 km/h (0 Bft) NO 45 5,3 C 10,6 C 6,6 km/h (2 Bft)
13.10.2013 12:15 8,8 C 83 % 1022,8 hPa 0,0 l/m 1,6 km/h (1 Bft) N 360 6,1 C 12,3 C 0,0 km/h (0 Bft)
13.10.2013 12:20 8,5 C 82 % 1022,8 hPa 0,0 l/m 2,4 km/h (1 Bft) N-NW 337 5,6 C 12,8 C 1,8 km/h (1 Bft)
13.10.2013 12:25 9,1 C 81 % 1022,8 hPa 0,0 l/m 1,8 km/h (1 Bft) N-NW 337 6,0 C 13,6 C 7,1 km/h (2 Bft)
13.10.2013 12:30 8,0 C 79 % 1023,1 hPa 0,0 l/m 1,8 km/h (1 Bft) N-NW 337 4,6 C 13,6 C 7,1 km/h (2 Bft)
13.10.2013 12:35 7,8 C 82 % 1023,1 hPa 0,0 l/m 2,9 km/h (1 Bft) W-NW 292 4,9 C 12,2 C 1,6 km/h (1 Bft)
13.10.2013 12:40 7,8 C 85 % 1023,1 hPa 0,0 l/m 2,9 km/h (1 Bft) W-NW 292 5,4 C 12,2 C 1,6 km/h (1 Bft)
13.10.2013 12:45 7,6 C 85 % 1023,1 hPa 0,0 l/m 2,9 km/h (1 Bft) W-NW 292 5,2 C 12,2 C 1,6 km/h (1 Bft)
13.10.2013 12:50 7,3 C 86 % 1022,8 hPa 0,0 l/m 1,1 km/h (1 Bft) NO 45 5,1 C 9,7 C 2,3 km/h (1 Bft)
13.10.2013 12:55 7,5 C 87 % 1022,8 hPa 0,0 l/m 1,0 km/h (0 Bft) S 180 5,5 C 9,3 C 0,0 km/h (0 Bft)
13.10.2013 13:00 8,2 C 88 % 1022,8 hPa 0,0 l/m 0,6 km/h (0 Bft) SO 135 6,3 C 10,4 C 1,6 km/h (1 Bft)
13.10.2013 13:05 8,4 C 87 % 1022,8 hPa 0,0 l/m 0,6 km/h (0 Bft) SO 135 6,4 C 10,4 C 1,6 km/h (1 Bft)
13.10.2013 13:10 8,7 C 83 % 1022,6 hPa 0,0 l/m 0,6 km/h (0 Bft) SO 135 6,0 C 10,4 C 1,6 km/h (1 Bft)
13.10.2013 13:15 9,0 C 84 % 1022,6 hPa 0,0 l/m 0,0 km/h (0 Bft) SO 135 6,4 C 10,4 C 0,0 km/h (0 Bft)
13.10.2013 13:20 9,0 C 83 % 1022,6 hPa 0,0 l/m 0,0 km/h (0 Bft) SO 135 6,3 C 10,4 C 0,0 km/h (0 Bft)
13.10.2013 13:25 9,1 C 83 % 1022,6 hPa 0,0 l/m 0,0 km/h (0 Bft) SO 135 6,4 C 10,4 C 0,0 km/h (0 Bft)
13.10.2013 13:30 9,0 C 81 % 1022,8 hPa 0,0 l/m 0,0 km/h (0 Bft) SO 135 5,9 C 10,4 C 0,0 km/h (0 Bft)
13.10.2013 13:35 8,9 C 79 % 1022,8 hPa 0,0 l/m 0,0 km/h (0 Bft) SO 135 5,5 C 10,4 C 0,0 km/h (0 Bft)
13.10.2013 13:40 9,6 C 83 % 1022,8 hPa 0,0 l/m 0,0 km/h (0 Bft) SO 135 6,9 C 10,4 C 0,0 km/h (0 Bft)
13.10.2013 13:45 10,0 C 81 % 1022,8 hPa 0,0 l/m 0,0 km/h (0 Bft) SO 135 6,9 C 10,4 C 0,0 km/h (0 Bft)
13.10.2013 13:50 10,3 C 76 % 1022,8 hPa 0,0 l/m 0,0 km/h (0 Bft) SO 135 6,3 C 10,4 C 0,0 km/h (0 Bft)
13.10.2013 13:55 10,6 C 77 % 1022,8 hPa 0,0 l/m 0,0 km/h (0 Bft) SO 135 6,7 C 10,4 C 0,0 km/h (0 Bft)
13.10.2013 14:00 11,0 C 75 % 1022,8 hPa 0,0 l/m 0,0 km/h (0 Bft) SO 135 6,7 C 10,4 C 0,0 km/h (0 Bft)
13.10.2013 14:05 11,0 C 76 % 1022,8 hPa 0,0 l/m 0,0 km/h (0 Bft) SO 135 6,9 C 10,4 C 0,0 km/h (0 Bft)
13.10.2013 14:10 10,6 C 70 % 1022,8 hPa 0,0 l/m 0,0 km/h (0 Bft) SO 135 5,4 C 10,4 C 0,0 km/h (0 Bft)
13.10.2013 14:15 10,3 C 74 % 1022,8 hPa 0,0 l/m 0,0 km/h (0 Bft) SO 135 5,9 C 10,4 C 0,0 km/h (0 Bft)
13.10.2013 14:20 9,9 C 72 % 1022,8 hPa 0,0 l/m 0,0 km/h (0 Bft) SO 135 5,1 C 10,4 C 0,0 km/h (0 Bft)
13.10.2013 14:25 9,9 C 74 % 1022,8 hPa 0,0 l/m 0,0 km/h (0 Bft) SO 135 5,5 C 10,4 C 0,0 km/h (0 Bft)
13.10.2013 14:30 9,7 C 73 % 1022,6 hPa 0,0 l/m 0,0 km/h (0 Bft) SO 135 5,1 C 10,4 C 0,0 km/h (0 Bft)
13.10.2013 14:35 9,6 C 72 % 1022,6 hPa 0,0 l/m 0,0 km/h (0 Bft) SO 135 4,8 C 10,4 C 0,0 km/h (0 Bft)
13.10.2013 14:40 9,4 C 73 % 1022,6 hPa 0,0 l/m 0,0 km/h (0 Bft) SO 135 4,8 C 10,4 C 0,0 km/h (0 Bft)
13.10.2013 14:45 9,6 C 75 % 1022,6 hPa 0,0 l/m 0,0 km/h (0 Bft) SO 135 5,4 C 10,4 C 0,0 km/h (0 Bft)
13.10.2013 14:50 9,6 C 74 % 1022,3 hPa 0,0 l/m 0,0 km/h (0 Bft) SO 135 5,2 C 10,4 C 0,0 km/h (0 Bft)
13.10.2013 14:55 9,7 C 73 % 1022,3 hPa 0,0 l/m 0,0 km/h (0 Bft) SO 135 5,1 C 10,4 C 0,0 km/h (0 Bft)
13.10.2013 15:00 9,7 C 70 % 1022,3 hPa 0,0 l/m 0,0 km/h (0 Bft) SO 135 4,5 C 10,4 C 0,0 km/h (0 Bft)
13.10.2013 15:05 9,7 C 70 % 1022,3 hPa 0,0 l/m 0,0 km/h (0 Bft) SO 135 4,5 C 10,4 C 0,0 km/h (0 Bft)
13.10.2013 15:10 9,8 C 70 % 1021,9 hPa 0,0 l/m 0,0 km/h (0 Bft) SO 135 4,6 C 10,4 C 0,0 km/h (0 Bft)
13.10.2013 15:15 9,6 C 71 % 1021,9 hPa 0,0 l/m 0,0 km/h (0 Bft) SO 135 4,6 C 10,4 C 0,0 km/h (0 Bft)
13.10.2013 15:20 9,3 C 72 % 1021,9 hPa 0,0 l/m 0,0 km/h (0 Bft) SO 135 4,5 C 10,4 C 0,0 km/h (0 Bft)
13.10.2013 15:25 9,7 C 71 % 1021,9 hPa 0,0 l/m 0,0 km/h (0 Bft) SO 135 4,7 C 10,4 C 0,0 km/h (0 Bft)
13.10.2013 15:30 9,8 C 71 % 1021,8 hPa 0,0 l/m 0,0 km/h (0 Bft) SO 135 4,8 C 10,4 C 0,0 km/h (0 Bft)
13.10.2013 15:35 10,0 C 70 % 1021,8 hPa 0,0 l/m 0,0 km/h (0 Bft) SO 135 4,8 C 10,4 C 0,0 km/h (0 Bft)
13.10.2013 15:40 9,9 C 71 % 1021,8 hPa 0,0 l/m 0,0 km/h (0 Bft) SO 135 4,9 C 10,4 C 0,0 km/h (0 Bft)
13.10.2013 15:45 9,8 C 71 % 1021,8 hPa 0,0 l/m 0,0 km/h (0 Bft) SO 135 4,8 C 10,4 C 0,0 km/h (0 Bft)
13.10.2013 15:50 10,0 C 70 % 1021,9 hPa 0,0 l/m 0,0 km/h (0 Bft) SO 135 4,8 C 10,4 C 0,0 km/h (0 Bft)
13.10.2013 15:55 10,2 C 68 % 1021,9 hPa 0,0 l/m 0,0 km/h (0 Bft) SO 135 4,6 C 10,4 C 0,0 km/h (0 Bft)
13.10.2013 16:00 10,2 C 69 % 1021,9 hPa 0,0 l/m 0,0 km/h (0 Bft) SO 135 4,8 C 10,4 C 0,0 km/h (0 Bft)
13.10.2013 16:05 10,2 C 69 % 1021,9 hPa 0,0 l/m 0,0 km/h (0 Bft) SO 135 4,8 C 10,4 C 0,0 km/h (0 Bft)
13.10.2013 16:10 9,8 C 70 % 1021,4 hPa 0,0 l/m 0,0 km/h (0 Bft) SO 135 4,6 C 10,4 C 0,0 km/h (0 Bft)
13.10.2013 16:15 9,8 C 71 % 1021,4 hPa 0,0 l/m 0,0 km/h (0 Bft) SO 135 4,8 C 10,4 C 0,0 km/h (0 Bft)
13.10.2013 16:20 9,9 C 71 % 1021,4 hPa 0,0 l/m 0,0 km/h (0 Bft) SO 135 4,9 C 10,4 C 0,0 km/h (0 Bft)
13.10.2013 16:23 10,0 C 71 % 1021,4 hPa 0,0 l/m 0,0 km/h (0 Bft) SO 135 5,0 C 10,4 C 0,0 km/h (0 Bft)
13.10.2013 16:25 10,0 C 71 % 1021,4 hPa 0,0 l/m 0,0 km/h (0 Bft) SO 135 5,0 C 10,4 C 0,0 km/h (0 Bft)
13.10.2013 16:30 10,0 C 70 % 1021,1 hPa 0,0 l/m 0,0 km/h (0 Bft) SO 135 4,8 C 10,4 C 0,0 km/h (0 Bft)
13.10.2013 16:35 9,8 C 71 % 1021,1 hPa 0,0 l/m 0,0 km/h (0 Bft) SO 135 4,8 C 10,4 C 0,0 km/h (0 Bft)
13.10.2013 16:40 9,8 C 72 % 1021,1 hPa 0,0 l/m 0,0 km/h (0 Bft) SO 135 5,0 C 10,4 C 0,0 km/h (0 Bft)
13.10.2013 16:45 9,9 C 71 % 1021,1 hPa 0,0 l/m 0,0 km/h (0 Bft) SO 135 4,9 C 10,4 C 0,0 km/h (0 Bft)
13.10.2013 16:50 9,8 C 71 % 1021,2 hPa 0,0 l/m 0,0 km/h (0 Bft) SO 135 4,8 C 10,4 C 0,0 km/h (0 Bft)
13.10.2013 16:55 9,8 C 71 % 1021,2 hPa 0,0 l/m 0,0 km/h (0 Bft) SO 135 4,8 C 10,4 C 0,0 km/h (0 Bft)
13.10.2013 17:00 9,6 C 72 % 1021,2 hPa 0,0 l/m 0,0 km/h (0 Bft) SO 135 4,8 C 10,4 C 0,0 km/h (0 Bft)
13.10.2013 17:05 9,6 C 72 % 1021,2 hPa 0,0 l/m 0,0 km/h (0 Bft) SO 135 4,8 C 10,4 C 0,0 km/h (0 Bft)
13.10.2013 17:10 9,7 C 72 % 1021,1 hPa 0,0 l/m 0,0 km/h (0 Bft) SO 135 4,9 C 10,4 C 0,0 km/h (0 Bft)
13.10.2013 17:15 9,1 C 73 % 1021,1 hPa 0,0 l/m 0,0 km/h (0 Bft) SO 135 4,5 C 10,4 C 0,0 km/h (0 Bft)
13.10.2013 17:20 8,8 C 74 % 1021,1 hPa 0,0 l/m 0,0 km/h (0 Bft) SO 135 4,4 C 10,4 C 0,0 km/h (0 Bft)
13.10.2013 17:25 8,9 C 75 % 1021,1 hPa 0,0 l/m 0,0 km/h (0 Bft) SO 135 4,7 C 10,4 C 0,0 km/h (0 Bft)
13.10.2013 17:30 8,9 C 75 % 1020,9 hPa 0,0 l/m 0,0 km/h (0 Bft) SO 135 4,7 C 10,4 C 0,0 km/h (0 Bft)
13.10.2013 17:35 8,7 C 76 % 1020,9 hPa 0,0 l/m 0,0 km/h (0 Bft) SO 135 4,7 C 10,4 C 0,0 km/h (0 Bft)
13.10.2013 17:40 8,8 C 76 % 1020,9 hPa 0,0 l/m 0,0 km/h (0 Bft) SO 135 4,8 C 10,4 C 0,0 km/h (0 Bft)
13.10.2013 17:45 8,7 C 76 % 1020,9 hPa 0,0 l/m 0,0 km/h (0 Bft) SO 135 4,7 C 10,4 C 0,0 km/h (0 Bft)
13.10.2013 17:50 8,6 C 77 % 1021,0 hPa 0,0 l/m 0,0 km/h (0 Bft) SO 135 4,8 C 10,4 C 0,0 km/h (0 Bft)
13.10.2013 17:55 8,6 C 77 % 1021,0 hPa 0,0 l/m 0,0 km/h (0 Bft) SO 135 4,8 C 10,4 C 0,0 km/h (0 Bft)
13.10.2013 18:00 8,5 C 77 % 1021,0 hPa 0,0 l/m 0,0 km/h (0 Bft) SO 135 4,7 C 10,4 C 0,0 km/h (0 Bft)
13.10.2013 18:05 8,4 C 78 % 1021,0 hPa 0,0 l/m 0,0 km/h (0 Bft) SO 135 4,8 C 10,4 C 0,0 km/h (0 Bft)
13.10.2013 18:10 8,3 C 78 % 1021,2 hPa 0,0 l/m 0,0 km/h (0 Bft) SO 135 4,7 C 10,4 C 0,0 km/h (0 Bft)
13.10.2013 18:15 8,2 C 79 % 1021,2 hPa 0,0 l/m 0,0 km/h (0 Bft) SO 135 4,8 C 10,4 C 0,0 km/h (0 Bft)
13.10.2013 18:20 7,9 C 80 % 1021,2 hPa 0,0 l/m 0,0 km/h (0 Bft) SO 135 4,7 C 10,4 C 0,0 km/h (0 Bft)
13.10.2013 18:25 7,8 C 80 % 1021,2 hPa 0,0 l/m 0,0 km/h (0 Bft) SO 135 4,6 C 10,4 C 0,0 km/h (0 Bft)
13.10.2013 18:30 7,6 C 80 % 1021,0 hPa 0,0 l/m 0,0 km/h (0 Bft) SO 135 4,4 C 10,4 C 0,0 km/h (0 Bft)
13.10.2013 18:35 7,4 C 81 % 1021,0 hPa 0,0 l/m 0,0 km/h (0 Bft) SO 135 4,4 C 10,4 C 0,0 km/h (0 Bft)
13.10.2013 18:40 7,1 C 81 % 1021,0 hPa 0,0 l/m 0,0 km/h (0 Bft) SO 135 4,1 C 10,4 C 0,0 km/h (0 Bft)
13.10.2013 18:45 7,0 C 82 % 1021,0 hPa 0,0 l/m 0,0 km/h (0 Bft) SO 135 4,1 C 10,4 C 0,0 km/h (0 Bft)
13.10.2013 18:50 6,5 C 82 % 1021,1 hPa 0,0 l/m 0,0 km/h (0 Bft) SO 135 3,7 C 10,4 C 0,0 km/h (0 Bft)
13.10.2013 18:55 6,0 C 83 % 1021,1 hPa 0,0 l/m 0,0 km/h (0 Bft) SO 135 3,3 C 10,4 C 0,0 km/h (0 Bft)
13.10.2013 19:00 5,9 C 84 % 1021,1 hPa 0,0 l/m 0,0 km/h (0 Bft) SO 135 3,4 C 10,4 C 0,0 km/h (0 Bft)
13.10.2013 19:05 6,0 C 84 % 1021,1 hPa 0,0 l/m 0,0 km/h (0 Bft) SO 135 3,5 C 10,4 C 0,0 km/h (0 Bft)
13.10.2013 19:10 5,4 C 85 % 1021,4 hPa 0,0 l/m 0,0 km/h (0 Bft) SO 135 3,1 C 10,4 C 0,0 km/h (0 Bft)
13.10.2013 19:15 5,2 C 85 % 1021,4 hPa 0,0 l/m 0,0 km/h (0 Bft) SO 135 2,9 C 10,4 C 0,0 km/h (0 Bft)
13.10.2013 19:20 4,6 C 86 % 1021,4 hPa 0,0 l/m 0,0 km/h (0 Bft) SO 135 2,5 C 10,4 C 0,0 km/h (0 Bft)
13.10.2013 19:25 4,6 C 86 % 1021,4 hPa 0,0 l/m 0,0 km/h (0 Bft) SO 135 2,5 C 10,4 C 0,0 km/h (0 Bft)
13.10.2013 19:30 4,6 C 87 % 1021,5 hPa 0,0 l/m 0,0 km/h (0 Bft) SO 135 2,6 C 10,4 C 0,0 km/h (0 Bft)
13.10.2013 19:35 4,9 C 87 % 1021,5 hPa 0,0 l/m 0,0 km/h (0 Bft) SO 135 2,9 C 10,4 C 0,0 km/h (0 Bft)
13.10.2013 19:40 4,3 C 87 % 1021,5 hPa 0,0 l/m 0,0 km/h (0 Bft) SO 135 2,3 C 10,4 C 0,0 km/h (0 Bft)
13.10.2013 19:45 3,8 C 88 % 1021,5 hPa 0,0 l/m 0,0 km/h (0 Bft) SO 135 2,0 C 10,4 C 0,0 km/h (0 Bft)
13.10.2013 19:50 4,7 C 89 % 1021,2 hPa 0,0 l/m 0,0 km/h (0 Bft) SO 135 3,0 C 10,4 C 0,0 km/h (0 Bft)
13.10.2013 19:55 4,1 C 89 % 1021,2 hPa 0,0 l/m 0,0 km/h (0 Bft) SO 135 2,5 C 10,4 C 0,0 km/h (0 Bft)
13.10.2013 20:00 3,9 C 89 % 1021,2 hPa 0,0 l/m 0,0 km/h (0 Bft) SO 135 2,3 C 10,4 C 0,0 km/h (0 Bft)
13.10.2013 20:05 4,3 C 89 % 1021,2 hPa 0,0 l/m 0,0 km/h (0 Bft) SO 135 2,7 C 10,4 C 0,0 km/h (0 Bft)
13.10.2013 20:10 4,1 C 89 % 1021,1 hPa 0,0 l/m 0,0 km/h (0 Bft) SO 135 2,5 C 10,4 C 0,0 km/h (0 Bft)
13.10.2013 20:15 3,5 C 90 % 1021,1 hPa 0,0 l/m 0,0 km/h (0 Bft) SO 135 2,0 C 10,4 C 0,0 km/h (0 Bft)
13.10.2013 20:20 3,7 C 90 % 1021,1 hPa 0,0 l/m 0,0 km/h (0 Bft) SO 135 2,2 C 10,4 C 0,0 km/h (0 Bft)
13.10.2013 20:25 3,6 C 90 % 1021,1 hPa 0,0 l/m 0,0 km/h (0 Bft) SO 135 2,1 C 10,4 C 0,0 km/h (0 Bft)
13.10.2013 20:30 3,4 C 90 % 1021,4 hPa 0,0 l/m 0,0 km/h (0 Bft) SO 135 1,9 C 10,4 C 0,0 km/h (0 Bft)
13.10.2013 20:35 3,6 C 91 % 1021,4 hPa 0,0 l/m 0,0 km/h (0 Bft) SO 135 2,3 C 10,4 C 0,0 km/h (0 Bft)
13.10.2013 20:40 3,6 C 91 % 1021,4 hPa 0,0 l/m 0,0 km/h (0 Bft) SO 135 2,3 C 10,4 C 0,0 km/h (0 Bft)
13.10.2013 20:45 3,4 C 91 % 1021,4 hPa 0,0 l/m 1,4 km/h (1 Bft) O 90 2,1 C 3,2 C 1,8 km/h (1 Bft)
13.10.2013 20:50 3,4 C 91 % 1021,3 hPa 0,0 l/m 0,8 km/h (0 Bft) O-SO 112 2,1 C 3,2 C 0,0 km/h (0 Bft)
13.10.2013 20:55 3,1 C 91 % 1021,3 hPa 0,0 l/m 0,6 km/h (0 Bft) O-SO 112 1,8 C 3,1 C 1,9 km/h (1 Bft)
13.10.2013 21:00 3,4 C 91 % 1021,3 hPa 0,0 l/m 1,8 km/h (1 Bft) O 90 2,1 C 3,1 C 4,3 km/h (1 Bft)
13.10.2013 21:05 3,4 C 92 % 1021,3 hPa 0,0 l/m 3,2 km/h (1 Bft) O 90 2,2 C 2,9 C 3,5 km/h (1 Bft)
13.10.2013 21:10 3,2 C 92 % 1021,3 hPa 0,0 l/m 2,6 km/h (1 Bft) O-SO 112 2,0 C 3,1 C 1,8 km/h (1 Bft)
13.10.2013 21:15 3,1 C 92 % 1021,3 hPa 0,0 l/m 1,1 km/h (1 Bft) O 90 1,9 C 3,0 C 0,0 km/h (0 Bft)
13.10.2013 21:20 3,0 C 92 % 1021,3 hPa 0,0 l/m 0,2 km/h (0 Bft) O 90 1,8 C 2,7 C 0,0 km/h (0 Bft)
13.10.2013 21:25 2,8 C 93 % 1021,3 hPa 0,0 l/m 0,0 km/h (0 Bft) O-SO 112 1,8 C 2,6 C 0,0 km/h (0 Bft)
13.10.2013 21:30 2,7 C 93 % 1021,4 hPa 0,0 l/m 0,0 km/h (0 Bft) O-NO 67 1,7 C 2,4 C 0,0 km/h (0 Bft)
13.10.2013 21:35 2,3 C 93 % 1021,4 hPa 0,0 l/m 0,0 km/h (0 Bft) NO 45 1,3 C 2,2 C 0,0 km/h (0 Bft)
13.10.2013 21:40 2,6 C 93 % 1021,4 hPa 0,0 l/m 0,2 km/h (0 Bft) NO 45 1,6 C 2,1 C 0,0 km/h (0 Bft)
13.10.2013 21:45 2,4 C 93 % 1021,4 hPa 0,0 l/m 0,2 km/h (0 Bft) O 90 1,4 C 2,2 C 0,0 km/h (0 Bft)
13.10.2013 21:50 2,5 C 93 % 1021,4 hPa 0,0 l/m 0,2 km/h (0 Bft) NO 45 1,5 C 2,2 C 0,0 km/h (0 Bft)
13.10.2013 21:55 2,8 C 93 % 1021,4 hPa 0,0 l/m 0,3 km/h (0 Bft) O 90 1,8 C 2,3 C 0,0 km/h (0 Bft)
13.10.2013 22:00 2,9 C 93 % 1021,4 hPa 0,0 l/m 0,5 km/h (0 Bft) O-SO 112 1,9 C 2,4 C 0,0 km/h (0 Bft)
13.10.2013 22:05 2,8 C 93 % 1021,4 hPa 0,0 l/m 0,3 km/h (0 Bft) NO 45 1,8 C 2,5 C 0,0 km/h (0 Bft)
13.10.2013 22:10 2,4 C 93 % 1021,4 hPa 0,0 l/m 0,0 km/h (0 Bft) S-SW 202 1,4 C 2,3 C 0,0 km/h (0 Bft)
13.10.2013 22:15 2,5 C 93 % 1021,4 hPa 0,0 l/m 0,2 km/h (0 Bft) O-NO 67 1,5 C 2,2 C 0,0 km/h (0 Bft)
13.10.2013 22:20 2,2 C 93 % 1021,4 hPa 0,0 l/m 0,2 km/h (0 Bft) O-NO 67 1,2 C 2,0 C 0,0 km/h (0 Bft)
13.10.2013 22:23 2,6 C 93 % 1021,4 hPa 0,0 l/m 0,3 km/h (0 Bft) O-NO 67 1,6 C 1,9 C 2,7 km/h (1 Bft)
13.10.2013 22:25 2,6 C 93 % 1021,4 hPa 0,0 l/m 0,3 km/h (0 Bft) O-NO 67 1,6 C 1,9 C 2,7 km/h (1 Bft)
13.10.2013 22:30 2,8 C 93 % 1021,5 hPa 0,0 l/m 0,3 km/h (0 Bft) O-NO 67 1,8 C 1,9 C 2,7 km/h (1 Bft)
13.10.2013 22:35 2,9 C 94 % 1021,5 hPa 0,0 l/m 2,9 km/h (1 Bft) NO 45 2,0 C 2,2 C 3,9 km/h (1 Bft)
13.10.2013 22:40 2,8 C 94 % 1021,5 hPa 0,0 l/m 1,3 km/h (1 Bft) O-NO 67 1,9 C 2,4 C 1,8 km/h (1 Bft)
13.10.2013 22:45 2,7 C 94 % 1021,5 hPa 0,0 l/m 0,8 km/h (0 Bft) O-SO 112 1,8 C 2,3 C 1,6 km/h (1 Bft)
13.10.2013 22:50 2,8 C 94 % 1021,7 hPa 0,0 l/m 1,1 km/h (1 Bft) O 90 1,9 C 2,1 C 2,9 km/h (1 Bft)
13.10.2013 22:55 2,8 C 94 % 1021,7 hPa 0,0 l/m 2,1 km/h (1 Bft) O 90 1,9 C 2,3 C 3,5 km/h (1 Bft)
13.10.2013 23:00 2,8 C 94 % 1021,7 hPa 0,0 l/m 3,2 km/h (1 Bft) NO 45 1,9 C 2,2 C 3,2 km/h (1 Bft)
13.10.2013 23:05 2,7 C 94 % 1021,7 hPa 0,0 l/m 2,4 km/h (1 Bft) NO 45 1,8 C 2,6 C 3,2 km/h (1 Bft)
13.10.2013 23:10 2,7 C 94 % 1021,6 hPa 0,0 l/m 1,4 km/h (1 Bft) O 90 1,8 C 2,4 C 0,0 km/h (0 Bft)
13.10.2013 23:15 2,4 C 94 % 1021,6 hPa 0,0 l/m 0,5 km/h (0 Bft) O-SO 112 1,5 C 2,3 C 0,0 km/h (0 Bft)
13.10.2013 23:20 2,4 C 94 % 1021,6 hPa 0,0 l/m 0,0 km/h (0 Bft) O-SO 112 1,5 C 1,9 C 0,0 km/h (0 Bft)
13.10.2013 23:25 2,6 C 94 % 1021,6 hPa 0,0 l/m 0,3 km/h (0 Bft) O 90 1,7 C 1,9 C 3,2 km/h (1 Bft)
13.10.2013 23:30 2,4 C 94 % 1021,9 hPa 0,0 l/m 0,8 km/h (0 Bft) O-SO 112 1,5 C 2,0 C 0,0 km/h (0 Bft)
13.10.2013 23:35 2,4 C 94 % 1021,9 hPa 0,0 l/m 1,0 km/h (0 Bft) O-SO 112 1,5 C 2,0 C 1,9 km/h (1 Bft)
13.10.2013 23:40 2,8 C 94 % 1021,9 hPa 0,0 l/m 1,4 km/h (1 Bft) S 180 1,9 C 2,3 C 3,4 km/h (1 Bft)
13.10.2013 23:45 2,8 C 94 % 1021,9 hPa 0,0 l/m 2,1 km/h (1 Bft) SO 135 1,9 C 2,7 C 3,9 km/h (1 Bft)
13.10.2013 23:50 2,6 C 94 % 1021,8 hPa 0,0 l/m 1,6 km/h (1 Bft) W-SW 247 1,7 C 2,7 C 0,0 km/h (0 Bft)
13.10.2013 23:55 2,5 C 94 % 1021,8 hPa 0,0 l/m 1,3 km/h (1 Bft) W-SW 247 1,6 C 2,7 C 0,0 km/h (0 Bft)
_ Min-Zeit 00:05 15:55 00:45 - 23:20 - - 00:05 00:15 23:55
Minimum _ 0,6 C 68 % 1017,9 hPa - 0,0 km/h (0 Bft) - - 0,0 C 0,3 C 0,0 km/h (0 Bft)
_ Max-Zeit 14:05 10:25 12:45 08:05 04:45 - - 11:20 12:30 04:40
Maximum _ 11,0 C 97 % 1023,1 hPa 0,7 l/m 5,3 km/h
S-SW (1 Bft)
- - 7,4 C 13,6 C 14,6 km/h
S (3 Bft)
Durchschnitt _ 5,0 C 89 % 1021,2 hPa #1,4 l/m 0,9 km/h (0 Bft) O - 3,3 C 6,3 C 1,2 km/h (1 Bft)